1499979601.16,23580,18.94,73916.0,-3.01,-37.87,-38.49,0,*53
1499979602.39,23581,18.94,73912.8,-3.01,-38.05,-38.61,0,*5D
1499979603.65,23582,18.94,73914.3,-3.01,-38.29,-38.73,0,*53
1499979604.94,23583,18.94,73912.8,-3.01,-37.93,-38.49,0,*55
1499979606.16,23584,18.94,73912.3,-3.03,-37.87,-38.43,0,*5F
1499979607.44,23585,18.94,73916.0,-3.01,-37.69,-38.23,0,*5A
1499979608.7,23586,18.94,73914.3,-3.01,-38.05,-38.67,0,*5C
1499979609.95,23587,18.94,73914.8,-3.01,-37.87,-38.43,0,*5E
1499979611.23,23588,18.94,73914.5,-3.01,-37.93,-38.49,0,*5E
1499979612.44,23589,18.94,73912.3,-3.03,-38.05,-38.61,0,*57
1499979613.7,23590,18.94,73912.8,-3.03,-38.11,-38.67,0,*5C
1499979614.98,23591,18.94,73916.0,-3.01,-38.23,-38.91,0,*57
1499979616.24,23592,18.94,73916.5,-3.03,-37.69,-38.23,0,*5E
1499979617.48,23593,18.94,73912.5,-3.01,-37.87,-38.61,0,*5B
1499979618.75,23594,18.94,73908.3,-3.01,-37.75,-38.29,0,*5D
1499979619.98,23595,18.94,73912.0,-3.01,-38.05,-38.61,0,*58
1499979621.25,23596,18.94,73916.3,-3.01,-37.87,-38.49,0,*54
1499979622.52,23597,18.94,73916.3,-3.01,-37.87,-38.49,0,*55
1499979623.78,23598,18.94,73916.5,-3.01,-37.87,-38.49,0,*5A
1499979625.02,23599,18.94,73918.3,-3.03,-38.05,-38.67,0,*50
1499979626.28,23600,18.94,73916.5,-3.01,-37.75,-38.29,0,*53
1499979627.54,23601,18.94,73922.3,-3.01,-37.93,-38.61,0,*56
1499979628.77,23602,18.94,73920.3,-3.03,-38.05,-38.67,0,*51
1499979630.01,23603,18.94,73914.8,-3.03,-37.75,-38.29,0,*52
1499979631.28,23604,18.94,73908.5,-3.01,-37.87,-38.49,0,*5C
1499979632.51,23605,18.94,73916.3,-3.03,-38.05,-38.67,0,*56
1499979633.77,23606,18.94,73914.0,-3.03,-37.93,-38.67,0,*55
1499979635.01,23607,18.94,73916.8,-3.01,-37.87,-38.43,0,*55
1499979636.28,23608,18.94,73918.0,-3.01,-37.87,-38.49,0,*50
1499979637.51,23609,18.94,73918.0,-3.03,-37.93,-38.61,0,*5C
1499979638.78,23610,18.94,73914.5,-3.01,-37.75,-38.23,0,*58
1499979640.02,23611,18.94,73914.5,-3.03,-37.87,-38.49,0,*5A
1499979641.25,23612,18.94,73916.3,-3.01,-37.75,-38.43,0,*5C
1499979642.52,23613,18.94,73918.5,-3.01,-37.87,-38.49,0,*5A
1499979643.76,23614,18.94,73916.0,-3.01,-37.33,-37.87,0,*5F
1499979644.99,23615,18.94,73918.3,-3.01,-37.45,-38.05,0,*5A
1499979646.23,23616,18.94,73916.3,-3.01,-37.27,-37.87,0,*58
1499979647.48,23617,18.94,73918.3,-3.01,-37.33,-37.93,0,*59
1499979648.75,23618,18.94,73918.0,-3.01,-37.87,-38.29,0,*57
1499979650.0,23619,18.94,73918.5,-3.01,-37.87,-38.43,0,*5A
1499979651.26,23620,18.94,73916.8,-3.01,-37.57,-38.23,0,*5B
1499979652.52,23621,18.94,73916.5,-3.01,-37.57,-38.23,0,*5A
1499979653.76,23622,18.94,73916.8,-2.99,-37.63,-38.35,0,*59
1499979654.97,23623,18.94,73916.3,-2.99,-37.87,-38.55,0,*54
1499979656.19,23624,18.94,73918.3,-2.99,-37.87,-38.55,0,*53
1499979657.4,23625,18.94,73918.3,-3.03,-38.05,-38.61,0,*52
1499979658.62,23626,18.94,73920.5,-2.99,-37.87,-38.55,0,*51
1499979659.85,23627,18.94,73914.3,-3.01,-38.05,-38.61,0,*52
1499979661.11,23628,18.94,73914.8,-3.01,-37.57,-38.11,0,*52
1499979662.34,23629,18.94,73916.5,-3.01,-37.75,-38.43,0,*54
1499979663.58,23630,18.94,73918.0,-3.03,-38.05,-38.67,0,*50
1499979664.83,23631,18.94,73916.3,-3.03,-37.93,-38.67,0,*51
1499979666.1,23632,18.94,73914.8,-3.03,-37.69,-38.23,0,*57
1499979667.33,23633,18.94,73914.5,-3.01,-37.57,-38.05,0,*5D
1499979668.57,23634,18.94,73916.0,-3.01,-37.87,-38.43,0,*55
1499979669.81,23635,18.94,73916.0,-3.01,-37.87,-38.61,0,*54
1499979671.05,23636,18.94,73916.5,-3.03,-37.09,-37.57,0,*59
1499979672.26,23637,18.94,73920.3,-3.03,-37.87,-38.61,0,*54
1499979673.5,23638,18.94,73916.3,-3.01,-37.87,-38.61,0,*59
1499979674.72,23639,18.94,73916.5,-3.03,-37.87,-38.43,0,*5A
1499979675.95,23640,18.94,73918.3,-3.01,-37.75,-38.61,0,*5B
1499979677.22,23641,18.94,73918.5,-3.01,-37.75,-38.49,0,*50
1499979678.5,23642,18.94,73916.0,-3.01,-37.51,-38.11,0,*58
1499979679.73,23643,18.94,73916.5,-2.99,-37.39,-38.17,0,*51
1499979681.02,23644,18.94,73918.3,-3.01,-37.51,-38.29,0,*55
1499979682.31,23645,18.94,73918.5,-3.01,-37.69,-38.29,0,*5F
1499979683.57,23646,18.94,73918.8,-3.01,-37.57,-38.23,0,*5B
1499979684.83,23647,18.94,73916.5,-3.01,-37.75,-38.29,0,*50
1499979686.07,23648,18.94,73918.3,-3.03,-37.51,-38.05,0,*55
1499979687.33,23649,18.94,73916.8,-3.01,-37.69,-38.43,0,*5F
1499979688.57,23650,18.94,73916.3,-3.03,-37.87,-38.49,0,*5F
1499979689.83,23651,18.94,73920.3,-3.01,-37.87,-38.67,0,*50
1499979691.04,23652,18.94,73922.8,-3.03,-38.05,-38.73,0,*51
1499979692.27,23653,18.94,73920.8,-3.03,-37.75,-38.67,0,*5D
1499979693.56,23654,18.94,73916.8,-3.01,-37.69,-38.29,0,*5F
1499979694.8,23655,18.94,73918.5,-3.03,-37.69,-38.43,0,*50
1499979696.01,23656,18.94,73920.8,-3.03,-37.87,-38.61,0,*53
1499979697.24,23657,18.94,73916.8,-3.03,-38.05,-38.67,0,*51
1499979698.48,23658,18.94,73918.3,-3.03,-37.93,-38.61,0,*58
1499979699.69,23659,18.94,73914.5,-3.03,-37.87,-38.61,0,*5C
1499979700.93,23660,18.94,73916.3,-3.03,-37.93,-38.61,0,*53
1499979702.16,23661,18.94,73918.8,-3.03,-38.05,-38.67,0,*54
1499979703.36,23662,18.94,73920.0,-3.03,-38.05,-38.73,0,*52
1499979704.62,23663,18.94,73918.3,-3.03,-37.93,-38.67,0,*56
1499979705.89,23664,18.94,73918.0,-3.03,-37.69,-38.23,0,*54
1499979707.12,23665,18.94,73918.5,-3.01,-37.75,-38.43,0,*5C
1499979708.36,23666,18.94,73916.5,-3.03,-37.87,-38.49,0,*5A
1499979709.6,23667,18.94,73916.3,-3.03,-37.75,-38.29,0,*50
1499979710.82,23668,18.94,73916.3,-3.03,-37.87,-38.43,0,*5E
1499979712.08,23669,18.94,73918.5,-3.01,-37.75,-38.29,0,*5C
1499979713.29,23670,18.94,73912.3,-3.03,-37.75,-38.43,0,*5A
1499979714.53,23671,18.94,73916.5,-3.03,-37.93,-38.61,0,*53
1499979715.78,23672,18.94,73916.3,-3.03,-37.93,-38.67,0,*56
1499979717.04,23673,18.94,73918.3,-3.03,-38.23,-39.03,0,*50
1499979718.3,23674,18.94,73914.3,-3.03,-37.93,-38.49,0,*5C
1499979719.51,23675,18.94,73918.0,-3.03,-37.75,-38.43,0,*5F
1499979720.75,23676,18.94,73916.0,-3.03,-37.87,-38.49,0,*5B
1499979722.01,23677,18.94,73916.5,-3.03,-37.93,-38.49,0,*5F
1499979723.25,23678,18.94,73918.8,-3.03,-37.87,-38.67,0,*59
1499979724.47,23679,18.94,73920.5,-3.03,-37.87,-38.43,0,*5E
1499979725.67,23680,18.94,73914.8,-3.03,-38.05,-38.73,0,*5E
1499979726.93,23681,18.94,73914.0,-3.03,-38.23,-38.91,0,*57
1499979728.16,23682,18.94,73918.3,-3.07,-38.35,-39.15,0,*5A
1499979729.37,23683,18.94,73918.3,-3.07,-38.17,-38.85,0,*53
1499979730.57,23684,18.94,73916.8,-3.07,-38.05,-38.61,0,*5D
1499979731.81,23685,18.94,73914.5,-3.07,-37.99,-38.61,0,*56
1499979733.09,23686,18.94,73916.8,-3.05,-37.99,-38.67,0,*51
1499979734.35,23687,18.94,73916.5,-3.05,-37.81,-38.55,0,*58
1499979735.59,23688,18.94,73916.3,-3.07,-38.17,-38.79,0,*5B
1499979736.82,23689,18.94,73912.8,-3.07,-38.43,-39.15,0,*50
1499979738.07,23690,18.94,73920.0,-3.05,-37.99,-38.73,0,*53
1499979739.29,23691,18.94,73916.8,-3.05,-38.17,-38.73,0,*5B
1499979740.55,23692,18.94,73914.0,-3.07,-38.23,-38.79,0,*57
1499979741.78,23693,18.94,73914.8,-3.07,-38.05,-38.79,0,*52
1499979743.04,23694,18.94,73918.5,-3.05,-37.93,-38.55,0,*59
1499979744.25,23695,18.94,73912.3,-3.07,-38.05,-38.73,0,*5E
1499979745.51,23696,18.94,73918.8,-3.05,-37.81,-38.35,0,*5E
1499979746.77,23697,18.94,73914.8,-3.05,-37.75,-38.29,0,*59
1499979748.03,23698,18.94,73918.3,-3.07,-37.63,-38.23,0,*59
1499979749.26,23699,18.94,73916.8,-3.05,-37.75,-38.17,0,*5A
1499979750.48,23700,18.94,73914.5,-3.07,-37.99,-38.73,0,*59
1499979751.74,23701,18.94,73912.8,-3.05,-37.99,-38.61,0,*59
1499979752.96,23702,18.94,73912.0,-3.05,-38.17,-38.73,0,*50
1499979754.21,23703,18.94,73914.0,-3.05,-38.11,-38.73,0,*57
1499979755.42,23704,18.94,73914.3,-3.07,-38.05,-38.61,0,*54
1499979756.66,23705,18.94,73918.3,-3.07,-37.81,-38.35,0,*57
1499979757.94,23706,18.94,73918.0,-3.05,-37.93,-38.67,0,*52
1499979759.22,23707,18.94,73916.8,-3.05,-38.11,-38.67,0,*56
1499979760.43,23708,18.94,73912.3,-3.07,-37.87,-38.61,0,*5D
1499979761.66,23709,18.94,73914.3,-3.07,-37.99,-38.61,0,*53
1499979762.9,23710,18.94,73912.5,-3.07,-38.23,-38.85,0,*5F
1499979764.14,23711,18.94,73918.3,-3.07,-37.99,-38.55,0,*5D
1499979765.39,23712,18.94,73914.8,-3.07,-38.23,-38.79,0,*5E
1499979766.63,23713,18.94,73914.3,-3.07,-38.05,-38.79,0,*5B
1499979767.89,23714,18.94,73918.8,-3.07,-37.69,-38.23,0,*56
1499979769.17,23715,18.94,73912.8,-3.05,-37.51,-37.93,0,*5A
1499979770.43,23716,18.94,73916.5,-3.07,-37.69,-38.23,0,*54
1499979771.66,23717,18.94,73918.5,-3.07,-38.17,-38.67,0,*53
1499979772.87,23718,18.94,73918.5,-3.07,-38.35,-38.85,0,*50
1499979774.15,23719,18.94,73916.5,-3.05,-37.99,-38.67,0,*56
1499979775.35,23720,18.94,73916.8,-3.07,-38.17,-38.73,0,*52
1499979776.59,23721,18.94,73920.5,-3.07,-38.17,-38.79,0,*59
1499979777.83,23722,18.94,73918.5,-3.07,-37.81,-38.43,0,*53
1499979779.09,23723,18.94,73916.3,-3.07,-38.23,-38.79,0,*5C
1499979780.29,23724,18.94,73916.0,-3.07,-38.05,-38.73,0,*55
1499979781.5,23725,18.94,73916.8,-3.07,-38.05,-38.55,0,*50
1499979782.71,23726,18.94,73914.3,-3.07,-37.87,-38.61,0,*51
1499979783.95,23727,18.94,73916.5,-3.07,-38.23,-38.85,0,*5B
1499979785.21,23728,18.94,73916.5,-3.09,-38.17,-38.79,0,*5E
1499979786.47,23729,18.94,73914.8,-3.09,-38.35,-38.79,0,*5F
1499979787.75,23730,18.94,73916.5,-3.09,-38.23,-38.79,0,*50
1499979789.01,23731,18.94,73916.8,-3.09,-38.17,-38.79,0,*56
1499979790.27,23732,18.94,73914.0,-3.09,-38.23,-38.85,0,*51
1499979791.55,23733,18.94,73914.8,-3.09,-38.23,-38.79,0,*53
1499979792.78,23734,18.94,73914.8,-3.09,-38.05,-38.73,0,*5A
1499979794.04,23735,18.94,73914.3,-3.09,-38.05,-38.79,0,*51
1499979795.29,23736,18.94,73918.0,-3.09,-38.35,-39.03,0,*5D
1499979796.55,23737,18.94,73918.8,-3.09,-38.17,-38.79,0,*50
1499979797.78,23738,18.94,73914.8,-3.09,-38.17,-38.85,0,*5C
1499979798.99,23739,18.94,73914.3,-3.11,-38.05,-38.61,0,*5D
1499979800.28,23740,18.94,73916.3,-3.09,-37.81,-38.67,0,*5F
1499979801.54,23741,18.94,73916.8,-3.11,-38.29,-38.91,0,*53
1499979802.78,23742,18.94,73914.3,-3.11,-38.29,-38.85,0,*55
1499979804.04,23743,18.94,73916.5,-3.09,-38.05,-38.79,0,*50
1499979805.27,23744,18.94,73918.8,-3.11,-37.93,-38.61,0,*57
1499979806.57,23745,18.88,73912.3,-3.09,-37.81,-38.29,0,*50
1499979807.8,23746,18.94,73916.5,-3.09,-38.05,-38.61,0,*5C
1499979809.01,23747,18.94,73918.0,-3.11,-38.05,-38.61,0,*54
1499979810.24,23748,18.94,73916.8,-3.11,-38.05,-38.79,0,*52
1499979811.47,23749,18.94,73918.5,-3.11,-38.23,-38.85,0,*54
1499979812.71,23750,18.94,73918.5,-3.11,-38.43,-38.91,0,*5F
1499979813.94,23751,18.94,73916.3,-3.11,-38.11,-38.61,0,*56
1499979815.19,23752,18.94,73916.5,-3.13,-37.75,-38.49,0,*50
1499979816.45,23753,18.94,73918.0,-3.09,-38.05,-38.79,0,*51
1499979817.66,23754,18.94,73914.5,-3.11,-38.05,-38.61,0,*56
1499979818.92,23755,18.94,73918.8,-3.11,-37.93,-38.67,0,*51
1499979820.17,23756,18.94,73914.3,-3.11,-38.11,-38.79,0,*58
1499979821.4,23757,18.94,73916.3,-3.11,-38.11,-38.61,0,*50
1499979822.66,23758,18.94,73918.5,-3.11,-38.23,-38.79,0,*57
1499979823.87,23759,18.94,73916.3,-3.11,-38.43,-39.09,0,*56
1499979825.13,23760,18.94,73918.5,-3.11,-38.49,-38.91,0,*56
1499979826.34,23761,18.94,73918.5,-3.11,-38.43,-38.85,0,*58
1499979827.59,23762,18.94,73916.3,-3.11,-38.11,-38.67,0,*50
1499979828.82,23763,18.94,73918.5,-3.11,-38.43,-38.91,0,*5F
1499979830.06,23764,18.94,73918.0,-3.11,-38.49,-39.09,0,*52
1499979831.27,23765,18.88,73912.5,-3.11,-38.43,-38.85,0,*5C
1499979832.53,23766,18.94,73916.0,-3.11,-38.23,-38.79,0,*5A
1499979833.79,23767,18.94,73916.8,-3.13,-38.29,-38.85,0,*50
1499979835.07,23768,18.94,73916.0,-3.13,-38.49,-38.91,0,*5C
1499979836.33,23769,18.94,73918.5,-3.13,-38.43,-38.91,0,*57
1499979837.59,23770,18.94,73918.0,-3.17,-38.49,-38.97,0,*57
1499979838.87,23771,18.94,73916.8,-3.13,-37.63,-38.23,0,*5A
1499979840.15,23772,18.88,73912.8,-3.17,-37.69,-38.11,0,*56
1499979841.44,23773,18.94,73914.3,-3.13,-37.69,-38.23,0,*52
1499979842.72,23774,18.88,73908.3,-3.17,-38.11,-38.67,0,*51
1499979843.97,23775,18.94,73916.5,-3.13,-38.05,-38.79,0,*5E
1499979845.25,23776,18.94,73916.5,-3.13,-38.11,-38.67,0,*57
1499979846.53,23777,18.94,73916.5,-3.17,-38.29,-38.79,0,*56
1499979847.81,23778,18.94,73922.8,-3.13,-38.23,-38.79,0,*57
1499979849.1,23779,18.94,73918.0,-3.17,-37.51,-37.93,0,*53
1499979850.36,23780,18.94,73912.5,-3.17,-37.69,-38.35,0,*5D
1499979851.63,23781,18.94,73912.3,-3.13,-37.69,-38.11,0,*5E
1499979852.9,23782,18.94,73912.3,-3.13,-37.87,-38.49,0,*50
1499979854.18,23783,18.94,73910.5,-3.13,-37.51,-37.93,0,*52
1499979855.39,23784,18.94,73910.0,-3.11,-37.27,-37.87,0,*53
1499979856.63,23785,18.94,73912.5,-3.11,-37.87,-38.29,0,*53
1499979857.92,23786,18.94,73910.5,-3.13,-37.93,-38.49,0,*51
1499979859.2,23787,18.94,73912.0,-3.13,-37.93,-38.49,0,*50
1499979860.48,23788,18.94,73910.3,-3.13,-38.23,-38.79,0,*58
1499979861.76,23789,18.94,73914.5,-3.13,-38.23,-38.79,0,*59
1499979862.99,23790,18.94,73912.8,-3.13,-38.05,-38.61,0,*5C
1499979864.25,23791,18.88,73910.5,-3.13,-37.93,-38.61,0,*5D
1499979865.45,23792,18.94,73912.0,-3.11,-38.05,-38.61,0,*5C
1499979866.71,23793,18.94,73912.5,-3.13,-38.05,-38.67,0,*59
1499979867.97,23794,18.94,73916.8,-3.13,-37.93,-38.61,0,*58
1499979869.23,23795,18.94,73918.3,-3.17,-37.99,-38.55,0,*50
1499979870.46,23796,18.94,73914.0,-3.11,-37.63,-38.05,0,*55
1499979871.72,23797,18.94,73914.5,-3.11,-37.69,-38.29,0,*50
1499979872.97,23798,18.88,73914.0,-3.13,-38.05,-38.67,0,*52
1499979874.25,23799,18.94,73914.5,-3.13,-38.11,-38.67,0,*56
1499979875.51,23800,18.94,73914.8,-3.13,-37.75,-38.23,0,*54
1499979876.77,23801,18.94,73916.3,-3.11,-37.69,-38.23,0,*5A
1499979878.02,23802,18.94,73916.8,-3.13,-37.63,-38.05,0,*55
1499979879.28,23803,18.94,73916.8,-3.13,-37.93,-38.43,0,*59
1499979880.49,23804,18.94,73916.8,-3.11,-38.05,-38.61,0,*5C
1499979881.77,23805,18.88,73912.8,-3.13,-38.11,-38.79,0,*53
1499979883.03,23806,18.88,73916.3,-3.13,-37.87,-38.49,0,*53
1499979884.29,23807,18.94,73918.8,-3.13,-37.93,-38.43,0,*5D
1499979885.52,23808,18.94,73918.8,-3.13,-37.75,-38.43,0,*5A
1499979886.78,23809,18.94,73918.0,-3.13,-37.75,-38.23,0,*5D
1499979888.03,23810,18.94,73918.3,-3.13,-37.69,-38.05,0,*5C
1499979889.25,23811,18.88,73914.5,-3.11,-37.87,-38.43,0,*5D
1499979890.51,23812,18.94,73918.5,-3.11,-37.51,-37.93,0,*57
1499979891.74,23813,18.94,73918.0,-3.11,-37.33,-37.93,0,*52
1499979893.0,23814,18.94,73914.8,-3.09,-37.09,-37.57,0,*5D
1499979894.23,23815,18.88,73908.3,-3.11,-37.63,-38.05,0,*51
1499979895.45,23816,18.94,73912.3,-3.11,-37.51,-38.05,0,*53
1499979896.75,23817,18.94,73914.8,-3.09,-37.81,-38.23,0,*52
1499979898.01,23818,18.94,73912.3,-3.09,-37.99,-38.61,0,*52
1499979899.27,23819,18.94,73910.5,-3.11,-38.11,-38.79,0,*5C
1499979900.52,23820,18.94,73908.5,-3.11,-38.23,-38.79,0,*57
1499979901.78,23821,18.94,73910.5,-3.11,-38.29,-38.79,0,*5C
1499979903.04,23822,18.94,73914.3,-3.11,-38.11,-38.79,0,*54
1499979904.29,23823,18.94,73914.5,-3.11,-38.11,-38.79,0,*55
1499979905.53,23824,18.88,73914.3,-3.11,-38.05,-38.79,0,*57
1499979906.78,23825,18.94,73914.8,-3.11,-38.23,-38.79,0,*52
1499979908.06,23826,18.94,73912.5,-3.13,-38.11,-38.67,0,*5D
1499979909.32,23827,18.94,73910.5,-3.13,-38.29,-38.85,0,*5B
1499979910.58,23828,18.94,73910.5,-3.17,-38.29,-38.85,0,*50
1499979911.83,23829,18.94,73908.3,-3.13,-38.11,-38.85,0,*5E
1499979913.09,23830,18.94,73910.0,-3.17,-38.17,-38.79,0,*57
1499979914.37,23831,18.94,73908.3,-3.13,-38.29,-38.79,0,*5F
1499979915.6,23832,18.94,73910.8,-3.17,-38.35,-38.85,0,*56
1499979916.89,23833,18.88,73908.0,-3.17,-38.49,-38.91,0,*59
1499979918.15,23834,18.88,73910.3,-3.17,-38.29,-38.85,0,*5D
1499979919.38,23835,18.94,73914.0,-3.17,-38.17,-38.73,0,*58
1499979920.66,23836,18.94,73916.5,-3.13,-38.23,-38.79,0,*52
1499979921.95,23837,18.94,73912.5,-3.17,-37.81,-38.29,0,*55
1499979923.23,23838,18.94,73914.3,-3.17,-38.11,-38.67,0,*56
1499979924.48,23839,18.88,73910.8,-3.17,-38.11,-38.73,0,*52
1499979925.74,23840,18.94,73908.3,-3.13,-38.05,-38.79,0,*57
1499979927.0,23841,18.88,73910.8,-3.17,-38.29,-38.85,0,*5F
1499979928.28,23842,18.88,73910.5,-3.17,-37.99,-38.49,0,*58
1499979929.54,23843,18.94,73910.8,-3.17,-37.99,-38.35,0,*52
1499979930.83,23844,18.94,73908.5,-3.17,-37.93,-38.49,0,*54
1499979932.11,23845,18.94,73912.3,-3.17,-38.11,-38.49,0,*50
1499979933.39,23846,18.88,73910.0,-3.17,-38.29,-38.91,0,*5D
1499979934.68,23847,18.94,73914.8,-3.17,-38.49,-39.29,0,*58
1499979935.93,23848,18.94,73910.3,-3.17,-38.17,-38.91,0,*5E
1499979937.2,23849,18.94,73914.5,-3.17,-37.81,-38.35,0,*51
1499979938.48,23850,18.88,73914.5,-3.17,-37.93,-38.49,0,*51
1499979939.77,23851,18.94,73916.3,-3.17,-38.11,-38.49,0,*55
1499979941.05,23852,18.88,73914.3,-3.17,-37.93,-38.49,0,*53
1499979942.31,23853,18.94,73910.5,-3.17,-38.49,-38.85,0,*5A
1499979943.55,23854,18.94,73912.0,-3.17,-38.17,-38.85,0,*56
1499979944.79,23855,18.94,73910.3,-3.17,-38.11,-38.73,0,*58
1499979946.05,23856,18.94,73914.0,-3.17,-38.29,-38.85,0,*59
1499979947.28,23857,18.94,73918.3,-3.17,-38.35,-38.85,0,*55
1499979948.51,23858,18.94,73916.5,-3.17,-38.17,-38.73,0,*53
1499979949.77,23859,18.94,73912.8,-3.17,-38.17,-38.67,0,*57
1499979951.03,23860,18.94,73912.3,-3.17,-38.29,-38.85,0,*5C
1499979952.25,23861,18.94,73908.3,-3.19,-38.11,-38.73,0,*51
1499979953.51,23862,18.94,73914.8,-3.19,-37.99,-38.67,0,*58
1499979954.76,23863,18.94,73914.3,-3.19,-38.11,-38.67,0,*56
1499979956.0,23864,18.94,73914.0,-3.19,-37.99,-38.55,0,*5F
1499979957.24,23865,18.94,73914.3,-3.19,-37.75,-38.29,0,*57
1499979958.5,23866,18.94,73914.5,-3.19,-37.93,-38.49,0,*5A
1499979959.74,23867,18.94,73916.0,-3.19,-37.99,-38.55,0,*5C
1499979960.96,23868,18.94,73916.3,-3.19,-38.11,-38.73,0,*58
1499979962.24,23869,18.94,73914.3,-3.17,-37.51,-37.93,0,*5D
1499979963.47,23870,18.94,73910.8,-3.17,-37.33,-37.75,0,*59
1499979964.73,23871,18.94,73912.8,-3.17,-37.57,-38.11,0,*57
1499979965.96,23872,18.94,73914.3,-3.17,-37.75,-38.17,0,*52
1499979967.22,23873,18.88,73914.3,-3.17,-37.99,-38.55,0,*57
1499979968.48,23874,18.94,73916.3,-3.17,-37.99,-38.55,0,*50
1499979969.74,23875,18.94,73916.8,-3.17,-37.99,-38.55,0,*51
1499979971.01,23876,18.88,73912.0,-3.17,-37.81,-38.35,0,*5D
1499979972.23,23877,18.88,73910.8,-3.19,-38.11,-38.73,0,*56
1499979973.48,23878,18.94,73914.3,-3.17,-38.11,-38.73,0,*57
1499979974.76,23879,18.88,73910.3,-3.17,-37.99,-38.67,0,*5C
1499979976.02,23880,18.94,73908.5,-3.13,-38.05,-38.79,0,*5B
1499979977.25,23881,18.94,73910.5,-3.17,-38.17,-38.85,0,*5E
1499979978.48,23882,18.94,73910.8,-3.17,-38.17,-38.85,0,*5D
1499979979.72,23883,18.94,73910.0,-3.19,-38.35,-38.91,0,*57
1499979980.92,23884,18.94,73914.0,-3.19,-38.17,-38.85,0,*55
1499979982.13,23885,18.94,73914.3,-3.19,-38.17,-38.85,0,*54
1499979983.36,23886,18.94,73914.5,-3.19,-38.17,-38.67,0,*5B
1499979984.63,23887,18.94,73914.3,-3.19,-37.93,-38.49,0,*55
1499979985.83,23888,18.94,73912.8,-3.19,-38.17,-38.85,0,*59
1499979987.04,23889,18.88,73910.5,-3.19,-38.17,-38.85,0,*58
1499979988.24,23890,18.88,73910.8,-3.19,-38.17,-38.73,0,*59
1499979989.48,23891,18.88,73912.5,-3.19,-38.11,-38.55,0,*5A
1499979990.68,23892,18.94,73914.8,-3.19,-38.17,-38.73,0,*5B
1499979991.92,23893,18.88,73912.8,-3.19,-38.29,-38.85,0,*5E
1499979993.13,23894,18.88,73914.5,-3.19,-38.17,-38.85,0,*54
1499979994.37,23895,18.94,73912.8,-3.19,-37.81,-38.35,0,*5E
1499979995.61,23896,18.94,73912.5,-3.19,-37.93,-38.35,0,*5E
1499979996.84,23897,18.88,73908.8,-3.19,-37.69,-38.17,0,*5A
1499979998.08,23898,18.94,73912.3,-3.19,-37.81,-38.35,0,*53
1499979999.31,23899,18.94,73912.0,-3.17,-37.75,-38.35,0,*57
1499980000.57,23900,18.94,73918.5,-3.17,-37.69,-38.17,0,*5B
1499980001.85,23901,18.88,73914.5,-3.17,-37.93,-38.49,0,*54
1499980003.12,23902,18.94,73916.3,-3.17,-37.81,-38.35,0,*5F
1499980004.38,23903,18.94,73916.0,-3.17,-37.57,-38.29,0,*58
1499980005.64,23904,18.88,73912.0,-3.17,-37.75,-38.29,0,*5F
1499980006.92,23905,18.88,73914.0,-3.17,-37.69,-38.11,0,*58
1499980008.2,23906,18.88,73912.3,-3.13,-37.63,-37.93,0,*50
1499980009.48,23907,18.88,73910.5,-3.17,-37.69,-38.11,0,*5A
1499980010.75,23908,18.88,73908.0,-3.13,-37.87,-38.29,0,*5A
1499980011.97,23909,18.94,73908.3,-3.17,-38.17,-38.73,0,*56
1499980013.23,23910,18.88,73910.8,-3.17,-38.17,-38.67,0,*5B
1499980014.49,23911,18.88,73910.8,-3.17,-38.17,-38.67,0,*5A
1499980015.77,23912,18.88,73914.3,-3.17,-37.99,-38.67,0,*50
1499980017.0,23913,18.88,73908.8,-3.17,-37.75,-38.17,0,*54
1499980018.29,23914,18.94,73916.3,-3.17,-37.81,-38.49,0,*53
1499980019.58,23915,18.94,73914.8,-3.17,-37.81,-38.49,0,*52
1499980020.84,23916,18.94,73916.3,-3.17,-37.69,-38.35,0,*5C
1499980022.1,23917,18.88,73910.8,-3.17,-37.75,-38.49,0,*5B
1499980023.38,23918,18.88,73910.5,-3.17,-37.93,-38.49,0,*5C
1499980024.67,23919,18.94,73914.3,-3.17,-37.93,-38.49,0,*5D
1499980025.96,23920,18.94,73914.3,-3.17,-37.81,-38.29,0,*52
1499980027.22,23921,18.88,73908.3,-3.17,-37.69,-38.17,0,*58
1499980028.5,23922,18.88,73908.5,-3.17,-37.93,-38.49,0,*55
1499980029.75,23923,18.94,73912.3,-3.17,-38.11,-38.73,0,*58
1499980031.01,23924,18.94,73912.5,-3.17,-38.11,-38.85,0,*56
1499980032.29,23925,18.88,73914.0,-3.17,-37.99,-38.67,0,*54
1499980033.57,23926,18.94,73916.8,-3.17,-37.99,-38.67,0,*57
1499980034.81,23927,18.94,73916.8,-3.17,-37.87,-38.43,0,*5F
1499980036.09,23928,18.88,73912.8,-3.17,-37.99,-38.67,0,*59
1499980037.35,23929,18.94,73914.8,-3.17,-38.29,-38.97,0,*53
1499980038.58,23930,18.88,73914.3,-3.19,-38.29,-38.97,0,*55
1499980039.81,23931,18.88,73914.0,-3.21,-38.35,-38.97,0,*52
1499980041.05,23932,18.94,73918.5,-3.19,-38.29,-38.85,0,*54
1499980042.28,23933,18.88,73912.0,-3.19,-38.35,-38.91,0,*5D
1499980043.52,23934,18.88,73914.3,-3.19,-38.29,-38.85,0,*52
1499980044.75,23935,18.88,73912.5,-3.21,-38.43,-38.97,0,*57
1499980046.0,23936,18.94,73912.3,-3.21,-38.35,-39.03,0,*59
1499980047.23,23937,18.94,73916.0,-3.19,-38.49,-38.97,0,*54
1499980048.49,23938,18.94,73916.0,-3.21,-38.35,-38.79,0,*5B
1499980049.73,23939,18.94,73912.0,-3.19,-37.99,-38.55,0,*56
1499980050.99,23940,18.94,73914.8,-3.21,-38.43,-38.91,0,*53
1499980052.27,23941,18.88,73908.5,-3.21,-38.23,-38.79,0,*52
1499980053.55,23942,18.88,73912.5,-3.21,-38.23,-38.79,0,*51
1499980054.81,23943,18.88,73912.3,-3.21,-38.17,-38.91,0,*51
1499980056.07,23944,18.88,73914.5,-3.21,-38.35,-38.79,0,*50
1499980057.35,23945,18.88,73912.5,-3.21,-38.23,-38.79,0,*56
1499980058.61,23946,18.88,73912.3,-3.21,-38.35,-38.91,0,*54
1499980059.84,23947,18.94,73918.5,-3.21,-38.17,-38.73,0,*59
1499980061.09,23948,18.88,73918.0,-3.21,-38.43,-38.91,0,*5B
1499980062.35,23949,18.88,73916.0,-3.21,-38.61,-39.03,0,*50
1499980063.61,23950,18.88,73914.8,-3.21,-38.35,-38.79,0,*55
1499980064.87,23951,18.88,73914.8,-3.21,-38.43,-38.91,0,*53
1499980066.15,23952,18.88,73912.3,-3.21,-38.23,-38.67,0,*5F
1499980067.38,23953,18.94,73910.3,-3.21,-38.05,-38.61,0,*5C
1499980068.62,23954,18.88,73906.5,-3.21,-38.05,-38.61,0,*5B
1499980069.89,23955,18.88,73900.0,-3.21,-37.87,-38.23,0,*59
1499980071.12,23956,18.88,73902.3,-3.21,-38.05,-38.61,0,*59
1499980072.36,23957,18.88,73906.5,-3.21,-38.05,-38.55,0,*5F
1499980073.59,23958,18.94,73908.3,-3.21,-38.17,-38.61,0,*54
1499980074.86,23959,18.94,73910.0,-3.21,-37.99,-38.55,0,*5B
1499980076.09,23960,18.88,73910.5,-3.21,-38.17,-38.73,0,*5C
1499980077.34,23961,18.88,73910.3,-3.21,-38.43,-39.03,0,*5A
1499980078.59,23962,18.94,73912.5,-3.21,-38.43,-39.03,0,*59
1499980079.79,23963,18.94,73914.3,-3.23,-38.17,-38.73,0,*5D
1499980081.02,23964,18.94,73912.5,-3.23,-38.35,-38.91,0,*56
1499980082.25,23965,18.88,73910.5,-3.23,-38.23,-38.97,0,*56
1499980083.47,23966,18.88,73914.5,-3.23,-38.23,-38.97,0,*55
1499980084.72,23967,18.94,73918.5,-3.23,-38.23,-38.91,0,*52
1499980085.92,23968,18.94,73918.0,-3.23,-38.05,-38.73,0,*55
1499980087.18,23969,18.94,73912.8,-3.25,-38.05,-38.67,0,*57
1499980088.41,23970,18.88,73914.8,-3.23,-38.17,-38.79,0,*55
1499980089.66,23971,18.88,73914.3,-3.23,-38.23,-38.79,0,*53
1499980090.94,23972,18.94,73918.0,-3.25,-38.11,-38.79,0,*57
1499980092.2,23973,18.88,73914.8,-3.25,-37.93,-38.55,0,*5D
1499980093.48,23974,18.94,73916.5,-3.25,-38.11,-38.67,0,*5E
1499980094.69,23975,18.94,73912.8,-3.23,-38.05,-38.61,0,*5A
1499980095.89,23976,18.88,73912.0,-3.23,-38.17,-38.61,0,*5A
1499980097.1,23977,18.94,73912.5,-3.23,-38.05,-38.61,0,*58
1499980098.3,23978,18.88,73908.8,-3.23,-38.43,-38.97,0,*5C
1499980099.55,23979,18.88,73910.0,-3.23,-38.49,-39.03,0,*5B